CAPE
12 1 4 5 30 25 137 121 34 0 0 0 0 0 125 266 197 150 204 379 616 850 576 1044 1963 2159 1920 1975 1935 1991 1717 1654 1639 1496 1579 1870 1701 1447 1411 1372 1585 1749 1722
84 101 54 50 120 32 7 76 140 138 33 66 69 20 94 204 206 135 168 192 506 745 1095 889 1462 1972 1702 1512 1514 1678 2241 2346 2243 2091 1980 1914 1645 1610 1545 1586 1647 1662 1548
223 126 65 111 34 8 57 205 230 220 139 136 187 203 172 119 200 241 190 129 278 940 1081 1277 1334 1921 1818 1551 1483 1558 1684 2194 1931 1946 1869 1681 1415 1357 1561 1490 1453 1466 1378
445 132 129 83 8 1 6 15 70 169 141 148 148 120 218 141 185 279 273 219 259 447 947 1332 1341 1500 1636 1593 1546 1677 1916 1825 1861 1563 1590 1475 1493 1429 1384 1235 1300 1265 1135
296 140 98 76 59 0 19 10 99 116 46 40 24 76 182 202 162 260 206 200 118 25 15 144 780 1326 1501 1564 1619 1740 1905 1951 1666 1532 1538 1512 1253 1120 1201 1264 1080 1170 1152
356 221 79 5 84 238 55 95 152 72 31 0 1 72 179 251 115 187 163 165 84 87 117 167 339 499 1011 1363 1701 1769 1744 2025 1707 1659 1386 1357 1348 1237 1208 1267 1384 1244 1013
429 268 30 19 209 252 105 178 168 35 2 108 1 0 24 89 161 189 163 146 172 246 246 252 349 638 917 1055 1111 1220 1564 1348 1415 1687 1775 1450 1410 1405 1312 1365 1381 1054 906
446 355 188 289 395 499 263 295 150 136 56 10 47 5 43 57 53 152 206 158 167 191 191 228 300 332 466 781 624 707 481 784 901 1062 1477 1586 1558 1449 1349 1171 945 744 551
604 525 351 382 483 533 562 424 284 311 327 75 97 15 24 29 27 15 85 92 151 104 156 232 192 234 329 388 491 641 451 462 473 548 810 1402 1419 1241 1139 894 532 383 282
565 642 492 363 377 311 206 159 172 27 208 175 110 68 29 12 12 2 0 19 27 25 23 97 288 337 346 371 431 502 544 394 443 382 515 754 1092 879 968 540 251 201 139
541 508 523 500 363 344 351 433 233 382 279 263 125 67 70 46 22 21 21 0 1 16 25 33 15 104 421 459 430 430 504 430 414 617 760 485 610 657 873 607 234 220 160
715 551 570 456 375 336 320 226 389 356 544 535 237 125 133 86 69 35 42 11 35 3 8 37 15 26 74 166 348 490 529 542 609 671 994 920 638 507 380 552 516 394 332
527 583 541 436 408 548 392 626 767 542 701 665 442 346 345 188 76 71 33 1 18 1 0 40 21 19 25 221 325 506 565 612 634 620 443 545 717 772 536 216 253 351 642
261 429 493 501 497 557 536 417 511 657 679 635 708 464 446 520 293 115 45 10 29 49 73 106 4 0 24 55 56 72 202 388 478 414 365 562 480 773 762 480 202 232 306
156 332 331 339 419 498 434 473 536 614 796 850 830 557 492 589 334 278 57 35 45 67 39 66 17 25 34 2 66 73 132 85 259 515 634 651 552 612 681 639 231 157 326
235 236 106 340 219 210 481 565 524 680 721 719 822 552 616 361 507 377 186 68 79 63 34 68 128 76 7 0 6 9 3 219 872 536 601 599 636 630 436 419 178 85 146
271 114 491 479 447 474 523 615 441 536 810 872 735 482 79 317 397 321 299 318 475 264 211 190 134 79 11 0 0 0 5 249 639 446 580 507 387 439 415 207 165 113 91
230 330 385 520 634 597 650 584 447 621 439 502 572 496 324 495 413 529 728 725 592 393 389 223 268 232 97 30 5 0 25 153 372 521 427 460 253 398 274 234 203 131 116
249 252 537 615 592 543 582 388 532 510 614 800 586 366 358 275 246 424 604 545 462 416 410 493 423 258 279 186 255 252 353 539 419 491 409 340 239 283 392 295 216 170 170
855 625 419 419 539 413 284 89 48 524 704 837 571 360 501 802 719 556 784 637 516 550 428 346 466 413 248 295 268 237 250 313 378 453 527 515 400 500 532 416 277 157 145
1040 921 542 504 367 112 51 33 334 528 758 693 704 926 858 823 921 1095 986 870 638 603 583 561 505 486 554 559 480 329 386 389 274 302 423 466 351 329 387 267 283 303 145
1019 945 805 773 592 513 334 231 622 683 722 625 727 984 1025 1120 1106 1153 987 944 967 889 667 506 467 458 491 410 396 313 187 298 357 149 299 364 315 378 308 320 420 349 276
1176 1042 742 768 662 630 744 737 687 756 826 644 799 977 1174 1455 1265 1175 1081 895 680 487 394 168 0 0 0 0 0 0 0 0 12 69 178 293 245 341 351 363 408 437 344
1262 1233 1090 836 764 865 899 715 668 904 823 699 949 988 1033 1083 1107 1098 896 523 134 0 0 0 0 0 0 0 0 0 0 0 0 0 0 9 55 179 335 384 446 422 349
1177 1212 1165 962 884 855 831 777 686 904 851 815 1037 993 981 1053 791 693 523 206 0 0 0 0 0 0 0 0 0 0 0 0 0 0 0 0 0 15 23 191 297 336 397
929 951 790 478 627 533 451 284 157 536 670 833 948 931 835 1173 335 90 104 0 0 0 0 0 0 0 0 0 0 0 0 0 0 0 0 1 0 2 1 4 126 179 222
CIN
-71 -146 -39 -62 -84 -138 -53 -49 -88 0 0 0 0 0 -67 -56 -66 -102 -111 -85 -69 -56 -74 -53 -6 0 -2 0 -1 -7 -22 -21 -16 -14 -3 0 0 -8 -4 -4 -2 0 0
-74 -71 -72 -70 -74 -144 -168 -81 -58 -56 -75 -114 -118 -65 -73 -85 -75 -98 -99 -91 -59 -47 -37 -38 -9 0 -1 -12 -22 -27 -1 0 0 -3 -3 -2 -3 -1 -3 -1 0 0 -1
-66 -72 -82 -78 -129 -171 -113 -56 -51 -70 -67 -69 -53 -48 -50 -67 -67 -71 -97 -98 -88 -41 -37 -25 -13 0 0 -23 -30 -29 -18 0 -8 -3 -4 -7 -15 -11 -3 -3 -4 -2 -2
-62 -71 -78 -89 -141 -121 -129 -102 -82 -54 -61 -58 -49 -53 -42 -47 -58 -69 -90 -91 -99 -94 -56 -20 -19 -18 -26 -23 -21 -11 -1 -5 -3 -7 -8 -11 -10 -11 -9 -13 -6 -5 -10
-59 -61 -65 -85 -102 0 -109 -88 -76 -77 -95 -78 -76 -49 -39 -56 -42 -67 -71 -82 -107 -166 -197 -184 -105 -54 -35 -22 -15 -8 -1 -1 -5 -5 -7 -10 -16 -22 -12 -11 -17 -10 -8
-56 -55 -73 -35 -94 -75 -111 -104 -80 -94 -130 -29 -29 -57 -46 -42 -62 -60 -58 -82 -135 -131 -149 -165 -146 -141 -87 -41 -12 -10 -8 -2 -10 -7 -9 -9 -8 -18 -16 -9 -6 -5 -10
-60 -67 -56 -43 -74 -71 -111 -82 -78 -104 -149 -88 -8 0 -28 -65 -47 -45 -69 -80 -85 -100 -117 -125 -122 -109 -90 -67 -62 -35 -12 -11 -12 -11 -7 -10 -9 -11 -15 -7 -5 -10 -15
-58 -54 -50 -43 -54 -56 -78 -68 -74 -70 -88 -115 -52 -96 -30 -27 -45 -66 -80 -87 -78 -95 -86 -99 -114 -113 -105 -90 -72 -46 -43 -35 -24 -14 -12 -10 -6 -11 -17 -20 -25 -20 -25
-55 -51 -42 -43 -41 -50 -42 -54 -69 -59 -37 -81 -86 -80 -49 -41 -83 -121 -85 -96 -92 -126 -106 -113 -112 -121 -114 -107 -87 -69 -42 -46 -45 -38 -26 -15 -11 -18 -29 -32 -38 -38 -35
-47 -45 -34 -40 -43 -48 -56 -73 -83 -16 -64 -37 -92 -98 -123 -116 -75 -81 0 -119 -182 -172 -157 -159 -116 -121 -144 -127 -115 -101 -77 -52 -49 -48 -34 -27 -26 -32 -30 -48 -43 -44 -40
-44 -43 -37 -27 -29 -44 -40 -40 -61 -46 -66 -48 -52 -63 -89 -99 -95 -79 -69 -2 -25 -168 -178 -205 -215 -177 -137 -146 -134 -159 -118 -84 -69 -59 -47 -39 -36 -35 -35 -47 -50 -39 -30
-44 -47 -40 -31 -24 -30 -37 -50 -42 -51 -43 -42 -55 -76 -60 -52 -55 -71 -66 -103 -128 -118 -237 -191 -130 -171 -189 -158 -131 -122 -105 -81 -64 -63 -64 -47 -43 -45 -49 -39 -39 -42 -30
-54 -53 -41 -33 -28 -25 -35 -34 -32 -41 -34 -29 -33 -40 -52 -61 -93 -83 -98 -50 -126 -52 0 -171 -197 -225 -195 -133 -121 -113 -120 -107 -90 -97 -97 -87 -67 -47 -56 -60 -49 -39 -15
-80 -63 -50 -41 -33 -28 -30 -37 -41 -34 -36 -38 -30 -48 -44 -45 -69 -84 -77 -113 -86 -98 -110 -70 -233 0 -205 -189 -226 -222 -173 -175 -134 -121 -114 -87 -98 -71 -59 -65 -75 -65 -43
-118 -66 -55 -50 -32 -26 -37 -33 -39 -35 -33 -29 -29 -40 -48 -44 -72 -73 -106 -118 -100 -56 -62 -100 -124 -167 -193 -219 -214 -199 -166 -173 -130 -98 -94 -97 -89 -77 -74 -58 -94 -94 -63
-103 -85 -100 -55 -48 -46 -34 -35 -31 -31 -36 -41 -38 -53 -50 -70 -68 -78 -99 -122 -107 -100 -100 -105 -91 -127 -68 0 -163 -214 -147 -162 -102 -125 -99 -106 -105 -63 -87 -85 -111 -121 -98
-96 -125 -53 -44 -40 -34 -36 -35 -39 -38 -32 -41 -47 -60 -88 -77 -82 -77 -84 -66 -46 -61 -47 -62 -126 -164 -134 0 0 0 -71 -163 -102 -111 -92 -105 -119 -125 -114 -115 -128 -143 -135
-111 -66 -58 -45 -38 -43 -43 -41 -38 -29 -43 -43 -41 -54 -62 -54 -49 -54 -44 -28 -35 -51 -36 -37 -68 -86 -103 -133 -158 0 -191 -169 -123 -98 -106 -117 -159 -159 -158 -141 -127 -151 -146
-120 -88 -53 -48 -56 -52 -47 -54 -41 -35 -41 -39 -40 -53 -49 -60 -52 -47 -36 -39 -38 -48 -51 -39 -40 -78 -80 -117 -109 -114 -93 -83 -103 -91 -100 -126 -144 -138 -128 -150 -165 -165 -153
-55 -54 -62 -59 -54 -66 -70 -82 -97 -37 -44 -40 -45 -55 -50 -37 -36 -30 -38 -35 -38 -38 -47 -49 -42 -47 -59 -67 -94 -85 -76 -79 -67 -72 -82 -93 -112 -113 -112 -139 -169 -205 -193
-54 -48 -53 -55 -72 -135 -147 -125 -63 -37 -38 -34 -40 -37 -44 -40 -29 -26 -24 -30 -45 -34 -30 -26 -28 -36 -43 -35 -25 -49 -51 -58 -91 -83 -63 -69 -99 -120 -130 -164 -175 -181 -207
-50 -52 -56 -57 -68 -70 -100 -96 -43 -35 -38 -42 -35 -29 -30 -26 -26 -24 -27 -32 -28 -18 -21 -26 -25 -18 -17 -20 -30 -36 -68 -36 -21 -84 -57 -51 -65 -59 -108 -138 -129 -146 -166
-59 -56 -76 -65 -66 -69 -39 -30 -34 -31 -32 -41 -40 -29 -24 -18 -25 -31 -36 -43 -59 -69 -75 -68 0 0 0 0 0 0 0 0 -124 -97 -18 -31 -66 -53 -77 -98 -109 -107 -126
-78 -55 -57 -59 -60 -57 -37 -38 -35 -32 -45 -60 -50 -41 -38 -28 -47 -37 -43 -70 -154 0 0 0 0 0 0 0 0 0 0 0 0 0 0 -73 -107 -62 -56 -63 -77 -95 -108
-62 -75 -73 -61 -53 -61 -55 -41 -43 -25 -39 -47 -34 -50 -56 -52 -80 -83 -83 -126 0 0 0 0 0 0 0 0 0 0 0 0 0 0 0 0 0 -100 -39 -66 -76 -90 -101
-23 -61 -78 -72 -76 -47 -66 -51 -89 -39 -45 -45 -44 -69 -97 -66 -161 -212 -181 0 0 0 0 0 0 0 0 0 0 0 0 0 0 0 -1 -1 0 -1 0 -10 -97 -102 -116
Wind_Speed
15 15 15 14 12 13 13 16 17 21 22 23 23 22 22 23 24 23 23 25 27 27 28 29 30 27 25 23 21 19 19 18 17 17 17 18 17 16 16 18 21 25 26
15 16 14 15 13 12 13 16 17 18 20 22 23 23 21 21 23 23 24 24 26 28 28 28 29 28 27 25 23 20 19 16 14 14 16 17 17 17 18 18 21 25 28
16 14 14 14 13 14 16 21 18 17 20 21 22 23 22 21 21 23 23 23 23 24 25 26 28 27 25 24 23 20 18 15 15 16 16 17 17 18 18 18 21 24 26
16 14 13 14 13 16 17 19 17 18 17 16 20 21 21 23 21 20 20 19 19 18 16 20 25 26 25 24 23 22 21 19 18 17 18 17 17 17 19 20 20 21 25
15 14 14 15 15 17 17 17 18 17 17 20 19 19 18 22 22 20 19 17 16 15 14 16 21 24 24 24 22 22 22 22 22 19 19 17 17 17 19 19 21 22 25
13 12 12 15 16 17 18 17 16 15 17 18 22 19 15 19 21 17 20 18 18 15 15 14 15 17 21 24 24 24 23 22 21 21 21 21 20 18 19 20 20 22 24
10 12 11 11 16 17 16 15 15 15 16 15 13 14 19 12 18 22 18 18 19 19 16 17 18 12 16 22 23 23 22 22 21 21 20 21 21 20 19 21 21 23 23
7 12 12 12 13 17 15 15 15 12 14 13 13 10 9 10 6 5 16 17 20 17 18 19 18 18 17 16 22 22 22 21 21 21 21 20 21 20 21 21 23 24 24
1 4 22 12 5 10 12 13 14 12 12 11 13 11 9 10 5 15 6 13 18 16 17 18 18 19 20 22 23 23 23 24 23 21 22 21 22 22 21 21 23 24 24
2 21 28 26 2 7 9 10 11 12 11 9 10 11 9 11 14 5 15 9 3 13 14 19 18 18 19 17 20 21 23 24 26 25 23 22 21 21 22 21 21 21 23
10 21 30 23 5 8 22 5 10 10 9 8 8 10 7 8 7 7 4 8 3 13 14 25 21 14 15 17 21 21 23 24 26 27 27 25 22 21 21 21 19 21 22
21 27 27 23 27 29 28 24 16 10 7 7 7 7 8 10 7 7 4 12 12 4 4 7 12 21 14 13 24 21 22 25 27 29 28 26 23 23 22 21 19 17 20
30 31 25 17 21 31 28 17 16 13 8 5 6 7 7 8 9 9 7 13 11 10 7 11 10 8 29 27 26 28 30 31 31 29 30 29 28 23 24 23 20 21 20
7 29 27 22 13 8 21 2 4 8 6 6 9 5 6 7 8 9 8 9 10 9 11 7 9 3 8 27 31 28 26 29 32 32 32 30 28 25 24 23 22 18 16
9 24 27 24 24 22 3 2 3 9 5 5 7 16 15 8 8 10 9 9 8 11 17 13 13 6 11 13 7 28 29 29 32 34 35 33 30 30 27 24 22 20 23
10 34 35 33 27 30 25 15 17 12 15 16 22 17 16 19 9 10 12 11 10 10 11 9 8 9 12 9 15 31 30 31 30 22 24 24 27 12 29 26 16 15 12
27 30 27 32 27 28 32 30 24 15 18 16 19 16 19 20 10 8 8 8 8 8 9 14 7 11 9 9 13 23 27 25 29 27 4 22 19 7 24 7 17 17 20
20 26 21 29 32 16 13 16 27 21 14 13 18 19 16 20 19 14 12 9 10 7 7 20 18 17 5 7 7 21 20 14 23 32 4 6 9 6 8 7 9 16 18
8 18 24 36 30 7 6 9 14 23 19 16 14 11 15 23 22 18 14 14 15 16 15 19 23 19 18 12 23 5 20 26 8 5 5 6 6 13 8 8 8 9 10
7 7 13 10 19 14 10 8 11 16 18 17 14 11 16 18 18 17 17 18 17 15 17 18 24 24 22 20 17 15 10 12 8 16 13 9 12 14 11 10 9 9 9
11 13 14 16 20 20 17 14 15 16 15 18 16 16 17 18 18 16 16 18 17 17 14 13 15 17 11 14 13 15 12 8 24 23 22 18 15 17 20 19 16 11 9
8 8 14 19 22 22 19 17 17 16 15 17 18 17 19 19 18 15 14 15 15 17 18 18 17 14 14 14 15 14 15 16 19 21 17 21 19 19 20 19 16 10 9
21 20 18 18 19 19 18 18 18 18 19 18 19 16 16 14 12 11 14 15 17 18 17 17 18 18 18 21 23 19 16 16 17 18 20 20 20 21 21 20 17 13 10
13 19 21 25 22 22 17 22 24 20 20 20 20 18 15 13 12 12 13 14 17 19 20 21 20 20 19 22 20 17 18 17 20 21 20 18 22 22 23 21 19 17 18
34 23 22 21 23 25 18 20 24 23 22 22 20 16 14 15 13 12 11 14 18 21 21 21 22 23 23 26 22 21 20 23 22 22 17 13 17 18 22 24 23 20 18
39 33 30 31 34 33 32 31 31 27 24 23 20 19 18 14 10 9 11 14 18 19 20 23 25 26 25 27 26 19 19 19 19 26 17 6 7 11 17 20 22 20 21
Wind_Direction
144 151 157 144 114 125 133 151 160 184 195 200 199 194 195 191 194 191 189 194 194 191 189 190 198 193 193 193 193 192 195 196 197 200 202 205 202 195 195 202 212 233 241
147 145 140 156 142 125 145 162 164 168 182 193 199 194 177 180 191 200 203 204 206 198 193 191 196 197 199 200 200 199 200 197 192 195 199 202 201 203 204 204 212 229 247
158 144 146 141 130 144 168 183 165 162 183 185 195 197 186 182 187 198 198 197 201 192 190 189 194 194 193 198 200 201 202 198 200 201 200 204 203 207 206 205 212 222 229
157 143 138 153 135 158 166 167 160 167 161 158 182 184 184 190 187 185 179 175 173 167 163 177 188 192 195 199 202 205 209 208 206 205 205 201 201 204 207 209 210 213 228
146 145 151 170 161 152 148 154 167 168 169 185 176 178 174 186 188 179 170 170 166 160 156 165 182 190 195 201 202 205 210 210 213 209 208 202 201 202 206 206 210 217 224
144 138 131 146 150 148 158 162 164 159 169 181 206 182 159 178 184 170 184 177 178 170 167 159 163 175 189 199 205 209 210 211 210 211 209 209 206 201 203 205 206 213 219
143 142 133 117 155 152 152 143 140 147 150 146 136 158 184 148 178 189 182 182 186 183 177 178 180 167 180 199 205 207 208 211 212 210 205 207 206 201 200 205 209 215 217
146 156 150 147 143 166 155 146 141 110 147 130 121 52 111 146 135 141 179 184 192 185 190 191 189 191 192 192 205 207 209 207 211 213 208 203 203 200 202 205 212 217 218
203 171 199 230 1 135 138 141 146 135 135 117 137 79 39 134 105 308 313 180 187 188 190 193 195 198 201 208 210 212 213 214 211 210 209 204 205 204 204 206 212 216 217
213 267 250 251 86 129 132 132 126 143 127 96 117 148 43 5 338 167 312 307 286 188 188 196 199 200 202 202 206 211 214 216 218 216 213 207 201 203 205 204 206 209 213
284 271 246 258 308 144 189 101 126 126 106 65 81 21 64 35 92 4 53 2 298 193 198 215 208 202 203 204 208 207 209 213 219 221 219 210 206 201 203 202 200 207 213
272 256 256 265 256 223 236 194 170 143 111 109 54 86 65 31 82 42 69 186 172 81 164 325 316 297 249 205 207 203 205 213 217 224 218 212 207 207 206 204 201 197 208
245 247 262 274 269 220 218 182 172 161 133 68 82 112 113 108 34 57 56 166 159 205 59 172 182 217 280 273 274 268 234 235 230 221 224 225 221 211 211 210 207 209 209
192 255 258 268 275 278 184 145 127 146 130 122 147 105 69 80 95 112 77 109 104 45 14 70 32 47 178 271 263 266 276 271 236 228 232 231 221 217 214 211 210 206 204
199 269 261 264 263 266 235 265 147 160 115 95 348 321 327 23 97 127 121 108 95 26 311 1 35 100 169 169 181 264 261 267 262 261 247 236 225 227 218 213 211 211 216
217 241 232 241 258 253 263 286 288 303 305 306 285 311 317 304 115 118 140 134 128 127 157 105 114 163 168 157 198 247 248 266 274 294 293 297 289 235 230 218 210 211 214
196 249 256 246 260 260 250 259 272 294 293 303 295 313 305 299 7 72 74 77 108 112 159 213 127 18 160 163 185 212 244 225 253 294 305 304 305 278 214 270 299 217 214
185 195 190 256 252 278 280 189 266 284 299 303 298 302 313 296 299 330 343 21 16 62 38 326 342 346 99 50 35 222 218 207 306 267 255 228 228 252 279 263 230 216 215
197 187 192 224 200 221 247 275 285 281 289 300 310 319 312 278 288 303 325 335 336 335 338 325 311 337 340 1 302 223 234 277 331 237 247 256 297 309 287 251 252 247 235
263 234 195 247 270 271 267 267 282 288 291 298 306 313 302 300 304 310 318 317 325 335 330 329 310 311 321 330 340 342 339 343 337 328 324 319 314 310 300 294 278 270 261
283 275 272 273 273 273 273 274 281 291 295 293 297 300 297 299 304 316 323 319 331 334 346 350 340 336 347 342 340 339 335 323 317 316 316 317 315 313 310 310 307 293 260
281 273 277 275 276 276 275 275 279 286 290 292 290 293 293 294 300 316 329 332 339 337 336 338 339 341 340 340 339 336 332 328 324 325 322 313 313 311 309 308 308 303 287
283 285 282 279 278 276 275 274 273 277 279 284 282 292 297 304 318 328 328 336 338 341 346 346 342 341 339 334 331 334 331 324 318 317 315 306 306 303 305 306 305 300 283
285 288 289 280 284 282 277 273 271 272 273 276 279 284 289 303 313 321 331 338 341 342 343 341 341 339 340 334 334 335 331 323 319 311 305 291 301 299 302 303 301 300 301
279 288 288 284 281 281 280 269 266 268 268 268 275 279 286 296 304 317 330 333 332 334 339 342 341 337 337 331 335 337 335 332 330 326 319 293 299 296 299 300 303 302 299
276 284 287 285 277 276 273 265 262 266 264 266 269 276 283 293 306 320 325 330 333 339 343 340 336 334 336 331 332 342 339 337 337 333 342 300 307 313 306 303 307 308 305